Theta_e
289 292 291 292 292 291 291 291 290 289 291 290 286 288 292 293 287 287 293 293 291 292 295 296 296 297 296 295 294 296 296 295 295 296 297 300 301 300 299 300 300 299 299 300 299 299 299 298 297 297 297 297 298 299 300 299 299 299 299 299 298 298 298 298 298 298 295 294 295 295 293 293 293 293 293 293 292 291 291 291 292 291 291 291 290 290 289
289 289 292 292 291 290 290 291 291 291 291 290 290 290 292 293 292 293 294 293 293 296 297 298 299 300 299 296 295 295 294 295 298 298 298 300 301 301 301 302 302 301 300 300 300 300 299 298 298 297 297 297 297 298 298 298 297 298 296 297 297 296 296 296 295 295 296 294 293 292 291 292 293 291 291 291 291 291 291 291 291 290 289 289 289 288 287
285 288 290 292 292 291 289 291 292 292 292 291 291 291 292 293 292 293 293 292 292 297 300 299 300 300 300 295 293 295 297 299 298 297 297 299 301 302 301 303 302 301 300 300 300 299 299 298 298 297 297 297 298 298 298 296 296 295 295 294 295 295 295 294 293 293 293 293 293 291 292 291 290 290 290 289 289 289 289 288 288 288 288 288 287 287 287
282 287 289 289 291 290 289 288 290 290 290 288 290 289 292 291 289 291 291 289 290 296 298 298 297 296 296 296 298 299 300 299 297 298 298 299 300 300 301 302 302 300 300 300 299 299 299 299 298 298 297 297 297 297 297 296 296 293 294 294 294 294 294 293 292 291 291 290 292 291 290 290 289 289 288 288 288 288 287 287 286 287 287 287 286 287 287
280 285 288 287 287 286 284 286 289 291 291 292 293 294 294 294 294 291 288 289 295 297 297 297 296 296 297 297 298 299 301 302 301 299 299 300 301 301 301 301 301 302 300 301 301 301 300 299 299 298 298 297 297 297 296 297 295 293 293 294 295 294 293 292 292 292 291 290 290 290 290 289 289 288 288 287 286 286 286 286 286 286 286 286 286 286 286
283 283 285 287 285 280 282 295 297 294 291 291 290 290 292 294 295 294 296 296 299 297 297 296 296 297 298 300 302 303 302 302 302 303 301 301 301 302 302 301 301 302 302 301 300 300 301 301 300 300 299 298 297 298 297 296 294 293 294 294 295 295 293 292 292 291 290 290 290 290 289 288 287 287 287 287 286 286 286 285 285 285 285 285 285 285 286
282 283 285 284 279 281 293 298 300 296 295 294 292 293 294 295 296 296 296 297 297 299 298 298 299 300 301 302 302 302 303 304 303 302 303 302 301 301 301 302 301 301 301 300 300 300 299 300 300 299 298 297 297 297 297 295 294 294 294 294 294 294 293 293 292 291 290 290 290 289 289 287 286 286 286 286 285 285 285 285 285 285 284 284 285 285 286
284 282 285 277 279 289 294 292 294 297 296 295 294 292 294 295 295 296 295 296 298 299 299 298 299 301 300 300 300 302 303 304 304 304 304 304 303 301 302 302 303 301 301 301 301 301 301 299 298 298 297 297 296 295 295 295 294 294 294 294 294 294 293 293 292 292 291 290 289 289 288 287 286 286 286 286 285 285 285 285 285 285 285 285 285 285 286
281 282 284 284 289 288 290 291 288 292 291 291 290 286 291 295 296 296 295 296 297 298 299 300 298 297 296 295 297 300 299 300 300 300 301 303 304 304 304 302 302 302 302 301 301 300 298 298 297 297 297 296 295 294 293 293 293 293 293 293 294 294 293 293 292 292 291 290 289 287 287 286 286 286 286 285 285 285 285 285 284 284 284 284 284 285 285
285 283 281 281 282 279 286 293 294 296 298 298 298 293 291 299 298 298 297 296 297 298 298 299 299 297 294 293 296 300 301 301 302 302 301 302 301 298 296 296 297 297 298 298 297 298 297 296 297 296 295 295 294 293 292 292 292 292 292 292 294 294 294 293 292 292 291 290 288 287 286 286 286 286 286 285 285 285 284 284 283 284 283 283 284 285 285
282 283 281 280 278 283 291 290 293 297 298 299 298 290 287 296 299 299 298 297 297 298 298 298 297 294 290 291 297 302 303 302 301 300 300 300 299 298 297 298 298 297 298 297 296 295 296 295 295 295 294 294 293 292 292 292 291 291 291 292 293 293 294 293 292 291 290 289 288 287 287 287 286 286 285 285 284 284 284 284 283 283 282 282 282 284 285
284 284 282 281 284 284 289 292 292 295 297 299 294 283 285 296 298 300 299 298 298 299 299 299 296 293 290 293 298 300 299 300 300 299 299 298 297 295 294 292 293 294 293 294 294 295 295 295 294 294 293 293 291 292 291 292 291 291 291 292 294 294 294 294 292 291 289 288 288 287 287 286 286 286 285 284 283 283 284 283 282 282 281 282 281 282 283
284 284 283 283 285 288 289 291 292 294 299 296 285 281 290 295 296 297 299 299 299 299 298 298 293 296 299 300 297 292 295 294 294 292 290 291 291 293 292 293 288 291 292 294 294 295 294 293 292 292 292 292 291 291 291 290 290 291 292 293 292 292 291 290 290 289 288 287 287 287 287 286 286 284 284 283 283 282 282 282 281 281 281 280 281 281 281
283 284 283 283 287 290 291 288 293 296 293 284 284 294 293 294 292 292 295 297 297 298 298 298 297 299 299 296 293 295 293 295 291 290 290 290 290 289 289 287 289 291 291 291 291 291 291 291 292 291 292 291 291 291 290 289 291 293 292 292 291 290 289 288 288 287 286 287 286 286 285 285 283 283 283 283 282 282 281 281 280 280 280 280 280 279 280
284 283 282 279 278 289 293 291 288 291 288 291 296 293 288 292 292 293 292 295 296 296 296 298 298 298 294 295 295 295 292 293 293 292 292 292 291 290 290 291 290 291 291 290 289 289 289 289 290 289 289 289 289 289 289 290 291 291 291 291 290 289 288 287 286 286 286 285 285 284 284 284 283 282 281 281 281 281 280 280 279 278 278 279 278 278 278
282 283 280 282 289 291 294 293 289 291 295 298 294 296 295 291 291 292 294 293 294 295 296 295 295 295 295 292 292 292 291 290 290 290 289 289 289 289 288 287 288 289 289 288 288 287 288 289 289 289 288 288 288 288 289 290 290 289 289 289 288 287 286 286 285 285 284 284 284 284 283 283 282 281 280 280 280 280 280 279 279 278 278 278 278 277 277
288 285 289 289 290 293 296 296 298 297 297 293 293 295 298 296 292 290 294 295 293 293 295 295 294 292 293 294 293 294 293 291 290 290 288 287 287 287 287 287 286 288 289 288 287 286 287 287 288 288 288 287 287 287 288 288 287 287 287 286 286 285 285 285 284 283 283 283 283 283 283 283 281 280 279 279 279 279 279 279 279 278 278 278 278 277 278
292 289 290 291 288 292 294 291 292 297 296 289 291 294 295 294 295 292 295 294 294 291 293 293 290 293 293 292 290 291 290 289 286 286 287 287 286 287 286 286 285 286 287 286 286 285 285 286 287 287 287 287 286 287 286 287 286 286 285 285 285 284 284 283 282 282 282 281 281 282 282 282 282 281 280 279 279 279 279 279 279 279 278 278 278 278 278
289 286 291 291 291 291 292 294 289 289 293 294 291 292 294 295 292 291 289 291 292 292 291 294 293 292 291 292 290 289 288 288 287 288 287 285 285 285 285 283 284 286 286 285 285 284 284 284 285 285 285 285 285 285 285 285 285 285 285 285 283 282 282 282 281 281 281 281 281 280 281 282 282 281 280 280 280 279 279 279 279 279 279 278 278 278 278
288 289 290 292 293 293 293 294 293 294 293 291 290 291 290 290 288 289 287 287 289 290 291 291 292 290 291 291 289 289 289 288 287 287 286 285 285 283 282 282 282 284 284 284 284 283 283 283 282 281 281 281 282 283 283 283 283 284 283 283 283 282 281 280 280 281 281 277 279 280 280 280 281 280 280 280 280 279 279 280 279 279 279 278 278 278 278
288 286 286 288 290 291 291 290 292 296 295 294 290 287 287 287 288 286 286 286 289 291 292 290 291 289 289 291 290 289 287 287 286 285 284 283 282 283 283 281 281 284 283 282 282 281 280 279 280 279 279 279 280 281 281 282 283 283 283 281 280 279 279 279 280 280 280 279 280 280 279 279 281 281 280 280 280 280 281 282 282 281 280 279 280 280 280
287 288 287 289 289 288 292 291 293 292 293 294 289 287 287 288 288 287 287 285 284 285 287 289 291 289 288 288 289 287 288 287 284 283 282 282 282 280 280 280 280 280 280 281 280 279 277 277 277 278 277 277 278 278 280 281 282 282 280 280 279 278 279 279 279 279 279 279 279 279 279 278 278 278 277 279 280 281 280 281 281 281 282 281 281 281 280
288 291 291 295 296 296 296 296 295 294 291 291 289 289 289 289 289 289 288 287 286 286 285 285 289 289 288 287 288 286 285 284 283 283 283 282 282 282 281 281 280 279 278 278 278 277 276 276 276 276 275 275 276 276 278 280 281 280 280 281 280 278 278 279 278 279 278 278 278 278 278 278 278 277 278 278 279 279 279 280 280 280 280 280 281 281 281
292 293 294 295 294 295 294 295 295 293 291 291 291 291 290 288 287 288 289 290 289 285 284 284 286 288 287 287 287 284 282 281 281 280 280 280 280 279 280 280 280 279 279 277 276 275 275 274 274 275 274 274 274 275 275 277 279 280 280 281 281 279 279 278 276 277 278 277 277 277 277 277 277 277 278 277 277 278 278 278 279 279 280 280 280 281 281
293 290 294 294 293 286 283 286 290 291 290 291 290 289 288 287 286 286 286 286 286 286 285 283 283 285 285 285 284 283 282 280 280 279 278 278 279 279 279 278 277 277 276 276 275 274 274 274 274 274 273 272 272 273 273 274 276 277 278 279 279 278 277 277 276 276 276 276 276 276 276 276 276 276 277 277 277 277 278 278 279 279 279 280 280 280 281
287 287 286 284 285 286 286 288 287 286 286 287 285 283 284 283 284 284 284 284 284 284 284 283 282 282 284 283 282 281 280 279 278 279 280 280 279 278 277 276 275 275 274 274 274 273 272 272 273 273 272 271 270 270 271 273 274 275 275 275 276 277 277 276 276 276 276 276 276 276 276 276 276 276 276 277 278 278 277 277 277 278 279 280 280 280 281
286 288 289 289 289 286 288 290 289 284 284 284 283 282 281 281 279 279 278 279 279 280 281 281 280 280 281 281 280 280 278 277 278 278 277 276 275 274 274 274 274 273 273 273 272 271 271 272 272 272 270 270 269 269 270 271 273 272 272 273 274 272 271 273 277 276 276 276 276 276 276 275 275 275 276 276 276 276 277 277 277 277 277 278 280 280 280
286 283 286 291 289 290 286 280 282 282 282 281 280 279 279 280 281 280 279 279 278 278 278 279 280 279 279 279 279 278 279 278 277 276 275 273 273 272 272 273 273 272 272 271 271 270 271 271 271 271 270 270 269 268 269 270 271 271 272 273 274 276 275 273 275 276 276 275 276 275 275 275 275 275 275 275 275 276 276 276 276 277 277 278 278 279 279
281 282 280 281 285 282 280 281 280 280 279 280 280 281 282 281 281 281 280 279 279 278 277 276 277 279 280 280 280 278 277 276 275 273 273 272 271 272 272 272 272 272 271 270 270 270 270 270 271 270 270 269 267 267 268 269 271 272 272 273 275 275 275 275 275 275 275 274 274 275 274 274 274 274 274 274 274 275 275 276 276 276 277 277 276 276 278
279 279 281 281 281 282 281 280 279 279 278 279 280 281 282 282 280 279 279 279 279 277 276 276 276 275 276 276 277 278 275 273 272 272 271 271 271 271 272 272 273 274 274 271 269 269 269 269 270 270 269 268 267 266 267 269 270 269 269 269 271 273 273 272 272 272 272 273 272 271 272 273 273 274 273 274 274 274 274 275 275 275 275 275 275 275 275
280 281 281 282 282 282 280 279 278 278 279 280 280 280 280 281 279 278 277 277 275 275 274 274 273 272 271 271 271 272 272 271 271 271 271 270 270 269 270 273 276 275 272 269 268 268 268 269 269 269 267 267 267 267 268 270 270 270 271 271 270 269 269 269 271 272 273 272 271 271 272 272 273 272 272 272 273 273 273 274 274 274 274 275 274 274 276
279 278 279 279 279 278 278 279 278 278 278 279 279 279 279 278 277 276 275 274 273 273 273 273 273 271 270 270 271 271 271 271 270 270 270 270 269 268 268 268 267 267 267 267 267 267 268 268 267 267 265 265 266 266 268 269 270 270 270 268 269 270 269 269 271 270 270 270 271 271 271 271 271 271 271 271 272 272 272 272 273 273 274 274 274 274 275
278 277 276 276 277 277 277 278 277 276 277 276 276 276 276 277 276 274 273 272 272 271 271 270 270 269 269 270 271 271 270 270 270 269 269 268 268 268 268 268 267 267 267 267 267 267 266 266 266 267 266 266 266 266 266 267 268 269 268 268 268 268 267 269 269 269 269 268 269 270 270 270 270 270 270 270 271 271 271 271 272 272 272 273 274 274 275
279 281 281 279 280 279 277 276 275 273 273 273 274 274 273 272 272 271 270 270 270 270 270 270 270 270 271 271 271 271 272 273 272 269 267 266 266 266 267 268 268 267 267 266 266 266 266 265 265 266 265 265 266 265 265 266 267 266 266 267 267 267 268 268 267 268 268 268 268 267 267 267 268 269 269 269 270 270 270 270 270 270 271 272 272 273 273
273 275 277 278 279 279 278 275 274 273 272 271 270 269 269 269 268 267 268 268 268 267 267 268 269 269 269 269 269 268 268 268 267 266 266 265 265 265 267 268 268 266 265 264 264 264 265 264 263 264 265 265 264 264 264 263 263 265 264 264 264 266 267 266 267 267 268 268 267 267 267 267 267 267 267 267 268 268 268 268 269 269 270 270 271 271 272
270 272 271 272 272 274 274 275 274 273 271 269 268 267 265 265 265 265 265 265 265 266 268 268 268 268 267 266 265 265 264 264 264 264 264 264 264 266 267 268 268 267 266 264 263 262 264 264 263 262 264 264 264 262 261 262 262 263 263 264 265 265 265 265 266 266 266 266 266 266 267 266 266 266 266 266 267 267 267 267 267 268 268 269 269 270 270
268 267 267 267 267 267 267 268 268 268 267 266 265 263 263 262 262 263 263 263 264 265 266 267 267 265 264 264 263 263 262 262 263 263 263 264 265 266 268 268 268 268 268 265 263 263 263 263 262 262 263 263 262 261 260 261 263 263 263 263 264 264 264 265 265 265 265 265 265 265 265 265 265 266 265 266 266 266 266 266 266 267 267 268 268 268 268
263 263 264 264 264 263 263 264 265 264 263 263 263 262 262 262 261 261 261 261 262 264 266 266 266 265 264 264 262 261 261 261 260 260 261 261 262 265 266 265 266 266 264 262 262 262 263 262 261 262 263 262 261 261 261 260 260 263 263 263 263 263 263 264 264 264 264 264 263 264 264 265 265 266 266 266 265 265 265 266 266 266 266 267 267 267 267
263 263 262 262 262 262 261 261 261 262 262 262 261 261 262 262 261 261 260 260 261 263 264 264 264 264 264 264 263 261 260 260 260 259 260 261 263 263 261 260 261 261 260 261 261 262 262 260 261 261 262 261 260 260 260 260 260 262 262 262 261 262 263 263 263 263 263 263 263 263 263 263 264 264 264 265 265 265 264 265 265 265 265 266 266 266 266
262 261 261 261 260 260 259 259 259 259 259 260 261 261 261 261 261 260 260 260 260 260 262 263 263 263 262 262 262 261 259 259 259 259 259 261 263 262 261 260 259 259 260 260 261 261 260 259 260 261 261 261 260 261 261 260 260 262 262 262 262 262 262 262 262 262 262 262 262 262 263 263 263 263 264 264 264 264 264 264 264 264 265 265 265 266 266
261 261 261 260 259 259 259 258 257 257 257 257 257 258 259 260 260 259 259 258 259 259 260 261 261 260 259 259 259 259 259 258 258 257 258 260 263 264 265 263 259 259 259 259 259 259 259 259 259 260 260 261 261 260 260 260 260 261 261 261 261 261 261 262 262 262 262 262 262 262 262 262 262 262 263 263 263 263 263 263 263 264 264 264 264 265 265
259 259 259 259 259 259 259 258 258 257 256 256 256 256 257 257 258 258 258 258 258 258 258 257 257 258 258 258 258 258 258 258 257 257 257 258 261 263 264 261 258 257 258 257 258 258 259 259 259 259 259 259 260 259 259 260 261 261 260 260 261 260 261 260 260 261 261 261 261 261 261 261 261 261 261 262 262 262 262 262 263 263 263 264 264 264 264
258 258 258 258 258 258 258 258 257 256 256 255 255 255 255 255 256 257 257 257 257 257 257 257 257 257 256 257 257 257 257 257 256 256 257 258 257 257 260 259 258 257 257 257 258 258 258 258 258 258 258 258 259 258 258 260 260 260 260 260 260 259 259 260 260 260 260 260 260 260 260 260 261 261 261 261 261 261 262 262 262 262 262 263 263 263 263
256 256 256 257 257 257 258 258 257 257 256 255 255 255 254 254 254 254 255 255 256 256 255 256 256 256 256 256 256 258 258 258 257 258 258 259 257 256 255 256 257 257 256 257 257 257 258 257 257 257 257 258 258 258 259 260 260 260 259 259 258 259 259 259 259 260 260 260 260 260 260 260 260 260 260 260 260 261 261 262 262 262 262 262 263 263 263
254 254 254 254 255 256 256 256 256 255 255 255 254 254 253 253 253 253 253 253 254 254 254 254 254 254 255 255 255 256 257 256 256 257 259 261 262 259 256 255 256 257 256 256 257 257 257 257 257 257 257 257 258 258 259 259 259 259 258 258 258 258 258 258 258 259 259 259 259 259 260 260 260 260 260 260 261 261 261 261 261 262 262 262 262 262 262
253 253 253 253 253 253 253 254 254 254 255 255 255 254 253 252 251 252 252 251 251 253 253 253 253 253 253 253 253 254 253 254 255 255 256 258 258 258 257 255 256 256 255 255 256 256 257 256 256 256 257 257 257 258 258 257 257 257 257 257 257 258 258 258 258 258 258 258 258 259 259 259 260 260 260 260 260 261 260 261 261 261 261 261 262 262 262
253 252 252 252 252 252 252 253 254 255 256 256 257 256 254 252 251 252 252 251 251 251 251 251 251 252 252 252 252 253 255 256 258 257 255 255 255 255 255 254 254 254 255 255 256 256 256 256 256 256 256 256 257 257 257 256 256 256 256 256 257 257 257 257 257 257 258 258 258 258 258 259 259 259 260 260 260 260 260 260 260 261 261 261 261 262 262
252 252 252 251 251 251 252 253 254 254 254 254 254 253 252 252 251 251 251 251 250 250 250 251 251 250 250 250 250 251 252 254 257 258 253 252 254 254 254 254 254 254 254 254 254 255 255 255 255 255 256 256 256 256 256 255 256 256 256 256 256 257 257 257 257 257 257 257 257 257 258 258 258 259 259 259 259 260 260 260 260 261 261 262 262 262 262
250 250 250 250 250 251 252 253 253 253 253 252 251 252 252 250 250 251 251 251 250 251 251 251 250 249 249 250 251 252 252 252 254 256 255 253 252 252 252 252 252 253 253 254 253 254 254 254 254 255 255 255 255 255 255 255 255 255 255 256 256 257 257 257 257 257 257 257 257 258 258 258 258 259 259 259 260 260 260 260 260 261 261 261 261 261 261
250 250 251 251 251 251 252 253 253 253 252 251 251 252 250 251 253 254 253 251 250 251 251 251 252 252 251 251 251 251 250 250 250 250 250 250 249 250 251 251 252 252 253 253 253 254 254 254 253 253 253 254 254 254 254 254 254 254 255 255 256 256 256 257 257 257 257 257 258 258 258 258 258 259 259 259 259 259 259 260 260 260 259 260 260 260 261
251 251 251 251 250 250 249 250 251 251 251 250 250 250 250 250 251 251 251 251 251 250 251 251 252 252 252 251 251 250 249 249 249 250 250 250 251 251 252 252 252 252 253 253 253 253 253 252 252 252 252 253 253 253 253 253 253 254 254 255 255 255 255 256 256 256 256 257 257 257 257 257 258 257 258 258 258 258 259 259 259 259 260 260 260 261 261
248 248 249 248 248 248 248 248 248 248 249 249 249 249 250 250 250 250 250 250 251 250 250 250 252 253 251 250 250 250 249 249 250 250 251 251 251 251 251 252 252 252 252 251 251 251 251 252 252 252 252 252 253 253 253 253 253 254 254 254 254 254 255 255 255 256 256 256 256 256 257 257 257 257 257 257 258 258 258 258 258 259 259 259 260 260 260
Wind_Speed
6 5 10 12 11 11 10 17 18 18 17 17 17 21 26 9 10 17 10 10 17 23 11 12 8 7 7 5 7 4 2 3 3 4 6 5 4 2 3 5 5 6 7 7 7 7 7 6 7 7 7 6 5 5 6 6 6 6 6 6 6 6 5 7 7 7 5 4 4 7 7 8 8 8 8 9 9 9 8 8 6 6 8 9 11 9 7
6 3 11 13 12 8 7 13 15 19 21 23 25 26 25 20 17 21 14 6 16 20 13 14 14 10 6 5 3 4 4 7 6 5 6 6 5 4 4 5 6 6 7 7 7 7 7 9 9 8 8 10 9 9 8 6 6 6 5 5 6 5 6 5 4 5 5 6 6 6 7 8 8 8 8 8 9 9 9 9 6 5 8 8 8 10 10
3 3 5 9 13 11 11 12 16 20 23 24 25 23 16 9 18 22 21 17 18 22 11 5 5 12 7 2 6 9 9 6 4 6 8 9 7 6 6 6 4 4 5 6 6 7 9 10 11 10 9 9 10 10 8 7 7 6 6 6 5 6 6 4 4 4 5 5 6 7 7 6 7 9 9 8 8 9 10 8 7 8 8 10 8 8 9
2 2 8 9 8 8 9 12 17 22 24 23 21 15 17 17 23 28 22 15 18 15 14 11 9 2 5 10 11 11 7 7 7 8 9 9 8 8 9 6 4 3 5 6 8 10 10 10 10 9 9 8 9 11 9 9 7 6 6 6 6 6 5 6 6 6 6 5 6 7 7 8 8 8 8 9 9 10 9 6 6 7 9 9 9 8 7
2 2 5 8 6 3 3 13 25 27 21 17 16 21 21 24 25 12 11 20 24 3 6 7 8 9 12 11 11 10 12 13 10 10 11 9 8 9 8 7 7 7 7 8 8 7 7 8 9 11 8 8 10 11 11 9 7 8 8 7 7 6 6 7 7 7 7 8 7 7 8 8 9 9 9 9 7 6 5 6 8 8 8 9 8 8 9
5 5 5 6 6 7 15 15 9 16 21 25 21 22 26 25 18 19 21 18 6 6 4 9 11 14 12 10 9 10 10 10 15 11 10 11 9 6 5 5 6 7 5 4 4 6 7 8 9 7 9 10 7 7 9 7 9 8 8 8 8 8 7 7 7 8 8 8 9 8 8 8 8 9 9 10 5 5 5 6 7 7 7 9 9 9 8
7 5 6 8 10 15 12 9 14 23 25 23 28 26 19 19 20 21 18 19 20 13 5 8 8 10 13 13 16 15 13 12 11 14 15 16 8 5 7 8 8 7 6 5 6 7 8 8 6 6 7 6 5 7 9 9 9 8 8 8 8 7 7 7 8 8 8 8 8 8 9 7 5 7 9 6 7 6 7 7 7 8 8 8 8 7 7
4 3 8 6 17 8 4 3 2 14 19 20 12 13 13 13 14 19 23 27 24 19 12 6 6 7 7 8 12 13 11 11 13 17 16 10 6 9 9 11 9 7 8 9 7 6 4 5 6 6 7 7 7 7 8 9 8 8 8 7 7 8 8 8 9 9 9 8 8 8 9 9 9 9 8 9 9 6 6 4 3 4 4 4 7 6 5
9 7 11 13 7 10 8 8 6 11 12 12 15 11 18 23 20 18 21 24 21 18 15 10 6 2 3 8 13 9 9 15 14 11 11 12 15 13 8 5 6 6 5 5 4 3 4 5 6 7 6 8 8 7 9 9 8 8 8 9 9 9 9 9 9 9 9 10 9 8 8 9 9 9 9 9 4 6 6 6 6 6 5 6 6 7 9
2 10 6 3 4 9 13 3 5 10 6 12 12 13 16 10 16 17 19 22 20 18 17 14 11 4 6 12 16 9 13 17 15 10 9 11 8 5 3 1 1 3 3 1 3 4 5 5 5 6 7 8 8 7 8 9 9 9 8 9 9 8 9 8 9 9 8 9 8 8 8 9 9 7 3 3 5 5 6 7 7 6 6 6 5 5 9
3 6 10 10 12 13 6 9 12 12 12 13 10 3 14 4 14 17 22 22 21 20 18 15 8 6 8 16 13 10 14 8 3 9 11 11 10 8 6 5 6 6 4 2 3 3 4 5 6 7 8 9 9 8 8 9 10 10 10 10 8 7 7 7 7 6 7 7 7 8 9 8 8 8 8 6 4 5 4 4 5 5 5 6 6 5 5
9 11 7 11 7 2 5 10 9 12 9 14 10 3 8 5 18 14 15 19 18 15 11 9 10 11 13 13 14 3 3 4 5 6 8 8 6 4 1 2 2 2 0 2 2 5 5 4 6 8 8 8 8 8 7 7 9 10 10 8 9 8 6 7 7 7 5 6 6 7 8 7 6 6 4 6 6 5 5 5 6 5 5 6 8 6 6
4 5 7 3 4 1 3 7 11 12 14 15 10 14 2 3 10 8 8 12 13 10 11 11 9 12 15 14 1 4 1 4 3 3 3 2 2 1 1 2 1 2 2 2 2 2 2 4 6 7 7 7 7 7 7 6 7 6 5 6 6 6 6 6 7 7 6 6 7 6 6 7 5 6 5 6 7 7 6 5 5 6 6 6 5 5 5
10 10 4 8 5 3 10 2 11 16 13 7 14 3 1 7 7 5 9 11 11 9 11 10 12 16 15 2 2 4 4 3 3 2 2 2 2 2 2 3 1 1 2 3 4 3 2 4 5 6 7 6 6 6 6 6 6 5 6 6 6 7 7 7 6 6 6 6 6 6 6 8 9 6 4 7 8 7 5 6 9 9 6 6 6 5 4
5 2 8 3 12 8 17 15 4 5 9 6 6 4 1 3 5 8 7 8 6 9 9 13 15 11 3 4 3 3 3 4 3 3 2 2 2 2 3 2 3 2 4 5 4 3 2 3 4 3 5 5 3 4 6 4 4 5 6 6 6 6 5 6 6 7 6 7 7 6 7 8 10 8 7 7 7 6 8 8 8 9 6 5 5 5 5
14 12 12 13 3 13 17 20 13 13 5 2 3 4 5 3 4 5 6 5 6 7 10 11 10 7 6 2 4 4 3 2 2 3 3 3 2 2 2 2 3 3 5 4 5 4 3 3 3 2 4 5 4 4 2 4 5 4 5 5 4 5 5 5 6 6 6 6 6 5 6 6 6 7 7 6 6 6 6 6 7 7 6 6 6 6 7
10 12 11 2 1 13 11 9 1 15 13 3 4 4 2 6 5 5 3 7 7 9 8 6 6 5 6 6 6 8 5 4 3 3 4 3 2 2 2 3 2 2 4 6 6 6 4 4 3 2 2 4 5 4 2 4 3 4 5 6 6 6 6 6 6 5 6 5 5 5 5 7 7 7 7 7 7 5 6 6 6 7 7 7 8 7 7
6 4 2 3 3 9 8 0 1 9 14 1 3 6 3 5 5 7 6 4 8 6 6 8 4 5 7 7 5 3 3 4 4 4 4 4 2 3 3 4 4 2 5 6 7 7 6 5 3 2 2 3 5 3 3 4 3 5 7 7 6 7 6 5 6 7 8 6 6 5 6 5 6 6 8 8 7 7 7 7 7 7 7 8 7 7 7
9 15 12 8 7 6 13 7 1 3 2 8 5 6 6 4 6 8 1 1 3 7 6 4 7 7 7 8 5 4 4 4 4 4 5 4 4 3 3 3 2 2 3 5 6 7 7 5 4 3 5 3 2 3 3 3 5 6 6 6 6 6 5 5 5 5 7 6 6 5 5 5 5 6 6 7 7 8 8 8 8 8 7 8 8 8 8
17 7 10 13 8 8 10 9 7 7 11 10 8 3 1 2 2 3 2 3 5 7 6 3 6 5 4 7 7 5 4 5 4 4 4 4 4 4 3 4 2 4 5 6 6 7 7 6 5 4 5 5 4 3 3 4 4 5 5 5 5 5 5 5 4 5 4 7 7 5 6 6 6 6 6 6 8 9 10 10 10 9 9 9 10 10 10
2 6 4 4 6 1 6 7 10 8 12 15 8 3 3 3 5 5 4 3 2 4 7 6 7 8 5 4 6 7 6 5 5 5 4 4 4 3 4 4 5 5 5 7 7 7 5 4 4 5 5 5 5 5 3 3 4 5 4 5 5 5 4 3 3 3 3 4 4 5 5 4 4 5 7 8 8 6 6 5 5 7 9 8 8 6 6
9 14 9 11 8 7 10 15 20 15 7 8 8 6 5 6 8 6 9 5 4 3 3 3 7 11 7 5 6 6 6 6 6 6 6 5 5 5 4 4 5 8 7 8 8 8 5 3 4 4 5 5 5 4 3 3 3 6 5 4 4 3 2 3 3 3 3 3 3 3 4 4 4 2 3 3 3 2 5 5 5 5 3 4 3 3 4
16 10 15 18 17 12 12 13 13 10 8 10 12 12 10 7 4 6 11 11 5 4 2 1 5 9 7 9 8 8 6 5 4 5 6 5 5 5 3 6 7 7 6 6 7 9 4 4 4 5 5 5 5 5 4 3 3 5 5 3 3 2 2 2 2 2 2 3 3 2 2 3 3 3 2 2 5 5 4 0 1 3 4 4 2 6 5
3 11 19 15 12 11 5 12 15 12 10 13 13 8 6 7 7 6 5 5 12 7 3 3 2 7 9 7 8 10 9 7 6 6 5 5 5 5 4 5 6 7 7 6 8 7 3 5 6 4 5 5 5 5 6 5 3 4 3 2 2 2 1 2 2 2 1 2 2 3 2 2 3 3 3 3 2 4 6 5 6 7 8 7 7 8 9
9 5 11 11 7 5 4 3 3 6 6 7 8 7 8 8 5 2 4 4 3 7 9 7 6 5 8 8 7 8 8 6 5 6 6 6 6 6 5 7 7 6 6 5 4 4 4 5 5 4 5 5 5 5 6 5 3 4 3 2 2 2 2 2 2 3 2 2 3 3 3 3 3 3 4 4 4 3 3 7 8 8 9 10 10 9 11
5 9 8 7 7 5 3 7 6 4 5 6 7 5 6 6 8 7 6 6 6 5 7 9 9 6 7 9 8 9 10 8 7 6 6 6 5 6 7 7 5 5 5 5 5 5 5 6 5 4 6 4 3 3 5 5 5 5 4 4 2 1 2 2 2 2 3 3 3 3 3 3 3 4 4 4 4 3 3 3 3 6 9 12 11 11 12
5 9 14 10 5 2 3 4 7 6 5 6 10 10 9 9 9 9 7 8 8 6 7 8 8 8 7 6 8 7 11 9 8 6 6 7 7 5 3 2 5 5 6 5 5 5 6 7 8 9 9 7 6 5 5 5 5 5 4 4 2 2 3 2 1 1 2 2 2 2 2 3 4 4 4 4 3 4 5 5 5 5 4 5 9 12 9
6 3 1 10 12 12 9 4 9 9 8 9 10 12 10 9 10 10 11 9 9 7 7 7 8 9 10 6 8 10 8 9 9 7 7 7 4 3 3 4 5 6 6 6 5 6 7 7 8 9 8 5 5 6 5 4 4 4 2 3 2 1 2 2 1 1 1 1 1 2 2 2 2 3 2 3 3 4 4 5 5 5 3 3 3 7 10
4 3 3 4 8 12 12 10 10 11 11 8 8 9 11 13 10 11 9 8 7 7 7 8 7 5 8 6 5 9 9 8 8 8 7 5 4 3 4 4 5 5 6 6 6 5 5 7 7 7 6 5 5 4 3 3 3 2 1 1 1 1 1 1 1 1 1 1 1 1 1 1 1 2 2 3 3 4 4 5 5 5 5 2 2 2 6
2 2 7 8 8 14 16 10 9 10 10 9 10 7 5 15 12 7 8 6 5 8 6 5 6 5 3 6 6 7 9 9 8 6 6 5 4 2 2 3 5 5 6 8 7 6 7 7 6 6 5 5 5 5 4 3 2 3 3 3 1 1 1 1 1 0 1 1 1 1 1 2 2 2 3 3 4 4 4 5 5 5 5 3 4 5 6
7 7 10 10 10 7 12 12 9 9 10 7 9 10 7 8 13 11 8 7 5 7 5 6 6 6 8 9 8 8 8 8 7 7 6 6 5 5 4 1 2 3 4 4 4 4 5 6 6 6 5 4 4 4 3 3 2 2 1 1 1 2 2 1 0 0 0 0 0 1 1 1 2 2 3 3 3 4 4 5 5 5 5 5 5 6 6
14 11 10 9 7 11 10 7 11 9 8 7 10 11 10 12 15 13 8 9 6 7 7 8 7 8 6 6 7 8 7 8 8 7 6 6 6 5 5 7 9 7 6 5 5 5 4 5 6 5 4 5 4 4 4 3 3 3 3 2 1 1 1 1 0 0 0 0 0 1 1 1 2 2 3 3 4 4 4 4 5 5 6 6 6 6 5
17 13 9 10 9 10 11 7 13 11 9 10 8 7 8 8 9 9 8 8 8 6 8 8 6 5 5 6 7 8 9 9 8 7 6 6 6 5 5 4 6 7 7 6 6 6 6 7 5 4 5 4 4 3 3 3 2 2 2 2 2 1 2 2 2 1 0 0 1 1 1 1 2 2 3 3 3 3 4 5 5 5 6 6 7 5 5
1 2 9 12 13 18 20 12 6 10 8 8 7 8 9 9 9 9 9 8 8 9 7 5 5 4 4 5 6 5 4 6 5 5 5 4 4 5 5 5 7 9 8 7 7 6 6 5 5 5 5 5 5 4 4 5 4 3 2 2 1 1 1 1 0 1 1 1 1 1 2 2 3 3 3 3 3 3 4 4 4 5 6 6 6 5 4
4 9 10 9 11 10 9 13 12 10 11 12 9 9 9 9 8 8 7 8 8 5 3 5 6 6 6 7 8 8 8 8 5 4 4 3 4 4 2 7 8 8 9 9 8 7 6 6 6 6 5 5 6 6 5 5 4 3 3 2 2 2 2 1 2 1 2 2 1 1 2 3 3 4 4 4 4 4 4 5 5 5 6 7 6 5 5
7 11 11 13 13 13 12 12 10 11 11 11 10 10 8 7 8 8 9 7 4 4 4 6 6 8 9 8 7 7 7 6 5 4 4 4 4 3 2 5 6 7 8 8 7 6 5 6 9 8 4 5 5 5 5 3 2 2 2 2 2 2 2 2 2 2 2 2 2 3 3 4 4 3 3 3 4 5 5 6 6 6 7 7 6 6 6
12 12 10 11 11 13 14 12 9 10 12 13 11 9 10 9 9 8 8 6 5 4 4 5 7 9 9 7 6 6 6 5 4 4 4 4 3 1 3 5 4 3 3 4 5 5 4 5 8 7 4 3 3 4 6 6 3 2 2 2 1 1 1 1 1 2 2 2 3 3 3 3 4 4 4 4 5 5 5 6 5 6 7 7 6 6 6
10 12 14 13 12 14 14 13 11 12 14 15 12 11 9 9 8 7 7 6 6 5 5 6 7 8 8 7 6 6 5 5 4 4 3 4 3 2 4 4 3 2 4 3 4 4 4 6 7 5 4 4 5 5 6 8 6 3 1 2 1 1 1 2 2 2 2 2 2 3 3 4 5 6 6 5 5 5 5 6 6 6 6 7 7 7 7
12 10 12 12 14 15 15 11 11 11 11 13 11 10 8 8 7 7 8 7 6 4 5 7 6 6 6 6 6 5 5 5 5 5 5 5 4 7 6 5 5 5 3 3 4 4 5 7 6 5 4 5 5 4 4 6 6 2 1 1 1 2 2 2 2 2 2 2 2 2 3 3 4 6 6 6 7 6 6 7 8 7 8 8 8 8 7
13 11 9 10 13 11 12 11 11 11 10 9 9 9 5 6 6 7 7 7 7 6 5 4 5 6 5 5 5 4 4 4 4 5 5 3 4 6 5 4 4 4 4 4 4 4 6 7 5 3 3 4 4 4 4 6 6 2 2 1 1 2 2 2 2 3 3 2 4 5 5 6 6 6 6 6 6 6 6 7 7 7 7 8 8 9 8
11 11 10 12 11 10 10 10 10 9 9 9 9 8 7 6 4 7 8 7 5 6 6 5 6 6 5 4 4 3 2 2 4 3 3 2 1 1 1 2 2 3 5 5 4 4 5 5 4 3 3 4 3 5 5 6 4 2 2 2 2 2 2 3 3 4 5 5 4 5 5 6 6 6 5 6 6 6 6 6 7 7 7 8 8 8 9
9 10 11 11 10 10 9 9 8 9 9 7 8 8 8 7 7 7 5 5 5 5 6 7 8 6 4 4 3 3 2 3 3 3 2 1 0 1 2 2 2 2 5 4 4 4 3 3 3 3 4 4 4 6 7 6 4 3 2 2 2 3 4 4 4 5 4 4 5 5 5 5 6 6 6 6 7 6 7 7 7 7 8 8 8 8 8
8 9 10 10 9 9 8 7 7 8 8 6 6 6 6 7 6 6 6 5 5 5 5 5 5 5 4 3 2 2 1 1 2 3 2 2 1 2 1 3 2 1 4 3 3 2 2 2 2 2 5 5 5 8 9 4 4 4 3 3 3 3 4 4 4 5 5 5 5 6 5 6 6 6 6 6 6 6 6 7 7 8 8 8 8 8 8
8 8 8 7 8 8 8 7 7 6 8 6 5 5 6 6 6 5 4 4 4 5 4 4 3 3 3 2 2 1 1 1 1 1 1 1 2 3 3 2 1 2 4 3 2 2 2 2 2 5 7 8 8 8 5 4 4 4 4 4 4 4 4 4 4 5 5 5 6 6 6 6 6 6 6 6 6 7 7 7 7 7 8 8 8 8 8
7 6 7 7 6 6 6 6 6 6 6 5 5 6 5 4 5 5 5 4 4 3 3 2 2 1 1 1 1 1 2 1 1 1 0 0 0 1 2 2 1 2 2 5 3 3 3 3 5 8 7 8 8 8 4 4 4 4 4 4 4 4 4 4 5 5 5 5 6 6 6 6 6 7 7 7 8 8 8 7 8 8 8 8 8 8 8
6 5 5 5 7 6 5 4 4 5 5 5 5 5 6 4 3 3 4 4 3 2 2 1 1 1 1 2 2 3 4 4 4 4 4 1 0 1 2 2 2 3 6 6 3 3 3 6 8 8 8 8 9 6 3 3 3 4 4 4 4 4 4 5 5 5 5 5 6 6 6 6 6 6 7 7 7 7 7 8 8 8 8 8 8 8 8
6 6 6 6 5 4 4 3 3 4 3 4 5 3 3 4 4 2 1 2 1 2 2 2 2 2 2 2 2 1 2 2 1 1 2 1 2 2 3 4 5 6 5 3 4 4 4 5 6 8 9 9 8 4 4 4 4 4 5 4 5 5 5 5 5 5 6 6 6 6 7 7 7 6 7 7 8 8 8 8 8 8 8 7 8 9 9
5 6 5 3 5 3 3 4 4 4 4 4 2 1 1 1 1 1 1 1 1 2 1 1 2 3 3 2 3 3 2 1 1 1 3 2 1 1 2 2 3 5 7 6 6 6 8 9 9 9 8 9 6 4 4 4 4 4 4 4 5 5 6 6 6 6 6 6 6 5 5 5 6 6 7 7 8 8 8 8 8 8 7 7 8 8 8
4 4 4 3 3 3 4 3 3 2 1 1 1 1 1 1 2 1 1 1 3 2 2 2 3 4 2 3 2 1 2 3 2 2 1 1 3 3 3 4 6 6 5 4 5 5 6 8 9 9 9 7 4 4 4 4 4 4 4 4 5 5 6 6 6 6 6 6 6 6 7 7 7 7 7 7 7 7 7 8 8 8 7 7 8 7 8
1 2 2 2 2 1 1 2 1 1 1 0 1 0 0 1 0 0 0 1 2 2 2 2 1 1 1 1 1 1 1 2 4 3 4 3 2 3 5 4 5 6 6 5 4 6 6 8 7 7 6 4 4 4 4 4 4 4 4 5 5 5 6 7 7 8 7 7 7 7 7 8 7 8 9 8 8 8 8 8 8 9 11 10 9 8 8
0 1 1 1 1 0 1 2 1 1 1 1 1 1 1 1 1 1 1 2 1 1 1 2 2 1 1 0 1 1 1 1 2 3 3 4 4 5 5 5 4 5 5 5 5 6 6 4 3 5 5 5 5 5 5 4 5 5 5 5 5 6 5 6 6 6 6 7 7 7 7 7 7 7 7 7 8 7 7 7 7 7 7 7 7 7 7
1 1 1 1 1 2 1 2 2 2 2 1 1 1 2 2 1 2 1 2 1 1 1 3 4 1 2 1 2 1 1 1 2 3 4 4 4 5 5 6 4 5 5 5 6 4 5 6 6 6 6 5 5 6 6 7 5 5 5 6 5 5 6 6 6 6 6 6 7 7 8 8 7 7 8 7 7 8 8 8 7 7 7 7 7 7 7
Wind_Direction
35 103 142 158 171 180 178 183 184 181 188 191 201 221 235 202 204 232 233 202 234 249 205 209 201 220 234 156 188 224 283 297 275 273 279 290 286 280 248 241 231 226 232 224 221 222 219 205 201 200 210 214 217 210 208 201 186 194 187 184 183 181 182 179 175 172 164 155 143 145 146 147 150 156 157 155 152 156 160 156 156 108 117 132 135 133 129
74 41 154 161 168 170 152 185 186 191 190 198 206 218 221 213 228 243 266 226 242 253 238 224 217 230 215 211 149 176 204 246 248 250 256 255 264 247 244 227 217 215 226 229 219 212 213 212 206 197 198 207 205 204 206 203 199 182 163 186 171 174 182 184 165 158 158 150 146 141 147 153 155 151 149 152 153 156 155 149 149 134 123 126 137 140 141
55 57 140 168 166 168 187 195 198 199 203 207 211 218 219 209 248 258 260 254 263 260 225 226 201 223 252 8 266 254 255 260 235 264 276 286 287 276 269 269 229 213 221 232 231 220 219 211 210 202 200 196 201 204 202 188 193 173 171 173 177 176 182 163 151 139 146 153 149 149 151 143 143 151 152 149 152 150 146 139 144 148 138 139 145 143 142
130 85 152 158 165 173 190 203 205 206 203 210 213 219 214 195 220 230 237 251 254 259 119 198 174 142 227 246 261 266 253 226 236 239 248 242 244 258 262 260 254 234 223 219 224 227 220 214 210 207 201 190 194 204 195 190 183 166 175 174 176 179 170 155 154 156 151 142 153 151 148 155 154 153 149 152 157 155 146 141 146 142 146 148 147 146 138
125 238 144 140 124 108 266 241 216 202 200 208 213 221 217 211 219 232 223 229 238 148 129 179 179 193 216 228 230 245 261 258 223 237 254 244 225 231 238 243 241 232 222 213 217 220 221 219 214 215 196 179 199 199 192 185 158 171 181 177 173 173 166 164 164 161 156 156 155 157 160 158 157 151 154 156 144 142 145 143 142 150 151 146 148 147 146
149 160 155 109 139 204 227 232 145 161 192 201 207 217 218 216 209 220 222 235 257 84 170 186 201 208 225 234 242 233 242 264 279 265 228 231 231 222 238 251 246 243 232 240 236 234 230 226 220 205 191 200 193 180 184 165 165 177 177 182 179 177 170 169 166 162 160 162 164 164 155 156 150 155 161 165 152 140 129 145 156 149 149 152 150 153 151
149 155 137 167 214 231 242 72 160 184 197 200 208 221 219 217 217 236 261 264 262 249 185 210 207 214 225 229 242 249 250 251 247 254 266 273 276 257 247 249 237 235 235 233 230 226 227 224 211 191 199 187 152 168 180 175 181 177 185 178 186 179 175 175 169 166 167 168 167 159 161 160 151 162 168 145 148 158 162 162 161 161 157 155 153 146 142
64 147 175 177 225 234 85 142 139 178 192 204 204 254 254 239 223 226 238 246 249 249 236 181 214 214 242 264 251 247 257 259 256 263 263 254 207 219 222 225 216 206 208 209 211 216 195 191 197 194 188 164 166 169 181 187 185 186 183 186 185 180 183 180 177 177 170 168 163 163 165 168 170 172 170 168 166 160 158 155 139 129 140 136 147 141 137
163 199 184 223 356 344 263 198 198 175 182 153 178 215 241 222 218 213 231 243 244 245 247 224 182 155 314 269 256 181 225 239 238 235 253 261 265 258 248 195 199 208 209 194 189 155 165 183 181 190 165 163 171 160 181 187 184 185 187 194 194 190 189 182 182 179 176 172 170 168 168 168 177 176 173 172 158 159 155 159 155 161 147 149 148 146 154
203 163 194 255 282 256 241 118 105 153 134 157 174 208 259 219 202 209 223 237 239 241 240 234 219 105 263 261 256 167 211 234 245 240 250 278 291 315 339 24 306 232 239 207 134 170 164 175 179 157 160 164 162 159 176 182 181 192 195 203 199 192 195 187 187 182 180 175 169 168 170 181 180 178 150 135 152 168 160 153 158 153 147 139 148 156 160
139 177 185 202 206 230 93 158 155 153 151 157 152 138 259 187 171 200 214 230 233 223 219 218 136 172 224 244 258 243 233 241 155 240 239 235 236 226 207 210 210 215 229 191 146 149 161 173 170 162 160 159 163 173 174 181 187 192 201 203 194 190 192 186 184 174 174 174 175 172 178 182 176 171 171 167 125 154 150 137 130 136 140 144 147 163 177
193 181 185 218 215 213 173 150 174 155 138 121 122 185 268 156 189 199 196 217 228 224 218 186 178 190 225 238 250 298 92 159 185 222 246 246 240 258 359 316 290 310 325 125 144 174 188 167 146 159 156 165 173 169 173 169 189 200 200 193 195 191 177 178 178 178 177 175 175 174 176 169 166 162 129 134 156 153 143 150 147 149 152 155 151 160 160
145 185 224 344 275 184 225 173 131 137 139 143 163 210 143 154 203 216 194 222 234 226 209 186 201 215 219 236 257 57 115 103 87 52 56 51 13 298 302 288 339 218 198 189 159 164 127 128 145 151 159 158 173 173 163 176 197 192 172 165 157 158 154 159 176 184 181 176 170 166 165 163 135 137 142 146 145 152 142 141 144 150 152 150 150 148 163
182 196 218 239 291 190 158 336 149 149 126 198 209 139 99 149 191 191 198 214 223 203 198 185 207 222 225 100 94 78 52 76 95 80 59 70 56 31 335 328 301 159 128 96 85 76 80 134 142 152 154 162 166 155 165 191 191 160 151 152 154 157 159 171 172 167 169 162 160 157 148 145 145 136 136 144 156 155 148 148 156 163 152 155 157 151 146
60 111 209 70 256 221 131 122 85 289 180 211 132 146 179 194 176 167 195 206 208 187 193 205 215 220 92 166 157 103 102 114 109 92 92 73 54 24 3 39 31 80 98 65 59 64 69 100 132 142 147 154 146 152 184 175 140 147 152 153 153 149 154 160 165 165 163 159 156 153 154 157 155 144 144 150 156 150 155 156 159 158 154 148 143 143 147
178 176 190 209 222 92 149 136 180 195 210 23 134 123 166 197 188 185 195 218 185 179 193 191 212 214 180 127 163 136 147 118 126 98 95 89 75 74 50 31 17 58 95 89 93 72 83 103 112 117 148 144 151 156 143 123 134 133 135 142 136 145 149 146 145 152 152 153 148 141 153 145 142 139 149 142 145 159 153 152 154 154 165 161 160 159 166
191 202 205 48 217 132 175 163 153 168 191 148 190 174 207 170 214 203 177 210 183 197 170 157 157 160 206 178 172 189 174 149 126 118 82 75 71 62 48 34 27 63 109 119 111 88 71 83 87 87 96 134 133 143 130 136 134 137 133 136 146 136 142 148 150 141 142 141 140 139 142 150 146 149 144 149 157 161 159 168 165 166 168 171 176 174 176
261 342 76 84 122 173 179 300 308 176 182 159 201 185 174 239 182 173 193 193 170 159 175 136 185 191 162 152 160 140 115 122 113 117 116 96 89 80 70 64 45 76 106 108 107 99 72 57 69 65 69 120 137 148 134 146 138 119 137 143 146 148 143 140 136 133 128 127 133 141 150 163 159 160 158 166 165 163 174 180 178 173 168 174 180 181 187
126 237 179 143 165 179 198 188 169 319 274 193 190 205 224 195 167 177 130 190 149 148 156 181 158 161 167 144 139 132 132 129 135 124 107 81 59 54 53 29 18 78 87 95 87 85 73 47 45 43 52 38 73 113 130 127 114 132 141 146 129 127 134 128 134 145 149 155 152 152 160 162 166 166 168 171 168 170 180 179 181 182 175 179 185 189 193
192 241 131 173 171 188 196 181 148 186 205 206 211 205 317 112 93 91 100 133 126 131 142 148 149 127 163 147 150 141 131 126 116 109 99 101 87 58 44 37 38 72 71 85 80 73 65 41 35 38 40 38 32 56 80 81 110 118 119 123 134 138 137 140 150 163 161 157 156 161 173 171 169 173 179 185 184 187 184 181 178 185 184 188 192 190 191
196 31 309 41 107 5 224 222 251 215 189 192 166 101 103 120 114 102 66 17 111 138 120 133 130 131 157 157 139 131 126 123 120 112 108 90 82 65 61 33 43 78 86 83 76 74 59 31 41 40 38 33 27 36 47 63 105 107 101 94 93 98 123 133 146 159 158 162 179 167 165 181 193 184 180 189 196 211 216 202 194 181 185 198 203 201 176
203 204 163 157 136 214 213 216 212 209 204 172 127 129 160 177 156 147 119 81 52 63 79 141 148 145 150 149 143 127 129 120 120 120 114 110 102 93 83 83 83 86 82 96 95 84 66 48 53 55 50 37 32 34 37 34 59 99 107 108 110 123 133 146 140 161 164 168 176 166 166 179 183 217 331 316 305 224 211 222 258 298 316 245 234 207 202
216 158 155 187 200 208 210 197 196 182 163 151 165 184 179 180 172 161 139 127 109 94 76 353 172 145 144 147 132 115 112 112 103 112 121 121 115 104 123 103 79 80 88 94 89 79 63 51 52 49 48 28 28 21 26 31 59 97 119 123 120 120 147 168 166 173 161 161 170 174 173 171 178 186 192 204 239 266 311 322 226 243 258 283 257 226 217
247 162 185 187 199 207 165 179 190 177 168 176 186 173 130 151 156 168 162 135 142 135 109 76 42 127 117 126 127 120 117 112 112 102 91 85 88 92 72 79 91 85 70 65 69 77 68 62 61 55 53 31 21 12 7 17 42 81 91 117 137 141 138 124 134 185 173 162 153 173 177 181 188 190 195 198 210 207 213 222 226 231 235 232 226 223 217
203 207 174 183 176 74 28 25 81 116 127 155 142 139 156 143 127 111 114 93 55 132 133 116 91 84 114 115 118 122 119 107 94 100 94 85 76 76 76 72 62 72 80 81 82 69 62 55 58 51 56 28 10 4 357 1 39 84 73 70 91 103 108 136 156 180 191 177 182 177 179 179 193 197 205 210 212 211 198 212 227 233 236 234 228 225 220
119 118 91 86 83 89 92 89 58 90 103 114 105 99 92 104 112 101 81 87 99 82 98 112 108 92 101 117 114 115 103 104 113 113 98 88 82 71 61 58 72 78 85 80 79 81 78 78 84 83 75 43 24 360 344 12 43 62 65 66 86 139 167 167 165 182 191 191 187 186 185 186 192 197 213 219 225 217 201 197 213 237 240 237 233 226 226
92 132 119 84 55 87 233 168 169 136 102 99 106 105 99 100 95 88 80 67 61 61 76 87 95 105 91 86 106 102 112 115 96 80 82 76 67 59 62 57 74 81 80 82 70 61 68 66 61 52 44 10 1 1 12 28 51 60 67 80 91 79 103 152 187 197 201 203 197 191 184 189 196 203 213 218 226 229 229 221 219 218 213 214 217 219 219
120 13 306 163 183 186 163 119 104 108 101 108 112 114 121 119 113 105 93 89 75 73 67 60 105 114 110 128 126 112 97 91 91 88 75 68 62 62 55 71 80 77 71 64 60 39 34 46 54 58 35 13 2 359 4 19 58 74 78 88 96 121 138 159 203 199 211 211 207 207 205 205 204 210 214 214 216 227 231 236 242 241 237 206 189 202 209
14 13 45 38 74 93 103 112 94 101 104 96 104 120 128 113 107 104 96 88 106 98 77 66 45 52 94 122 109 104 103 102 93 83 86 82 71 61 73 85 91 87 79 74 61 50 56 56 61 64 42 12 2 -0 1 16 38 50 64 87 137 138 165 166 178 201 189 192 211 224 222 222 209 220 223 226 228 232 232 232 230 233 235 190 142 202 214
64 107 85 81 106 120 112 103 111 113 117 132 125 114 125 122 108 88 101 98 92 85 85 86 78 70 72 85 79 100 106 103 103 101 90 77 65 48 74 123 129 99 77 57 40 33 50 55 60 58 32 9 5 1 -0 20 49 45 56 31 22 25 39 55 75 117 153 193 169 178 222 220 224 225 229 227 228 228 235 236 231 232 233 214 190 209 209
101 93 98 102 98 77 91 110 111 113 114 118 116 109 90 100 109 107 97 92 72 80 75 83 90 90 72 81 86 80 87 93 92 89 82 74 58 44 28 29 111 81 68 53 29 29 45 52 56 45 10 359 14 -0 2 13 28 34 45 49 48 54 66 91 117 256 253 213 147 203 233 227 237 228 235 238 234 235 234 239 236 234 235 226 213 217 217
99 82 86 77 87 102 100 106 112 111 109 112 114 110 124 127 123 118 109 90 76 85 94 83 77 74 79 94 95 96 88 89 87 82 75 68 59 49 43 52 74 88 90 79 60 51 52 59 48 20 350 360 13 14 13 22 7 20 20 19 18 5 45 22 301 45 125 258 243 242 243 244 247 237 247 242 244 242 242 241 241 239 240 235 230 221 209
113 102 82 107 99 100 114 131 125 115 111 100 81 77 63 74 89 96 100 110 104 88 83 71 61 74 88 104 105 102 99 96 86 75 63 55 45 39 39 62 73 83 82 71 65 60 51 47 29 14 18 13 21 28 33 30 20 26 19 5 5 17 8 1 18 331 5 309 261 264 277 260 264 256 250 251 254 256 256 252 250 251 245 245 246 238 207
352 286 167 160 153 155 150 146 126 108 93 78 85 84 82 85 93 96 98 100 95 86 77 73 81 73 105 105 100 98 115 102 72 58 49 47 38 27 32 75 87 82 72 58 47 44 37 28 14 15 12 11 21 22 24 22 25 23 14 357 353 356 359 2 8 323 315 304 298 307 291 281 271 261 264 258 258 257 257 258 260 257 259 257 253 247 210
51 50 56 53 60 62 85 116 131 124 119 110 98 85 88 95 86 89 92 87 85 85 75 72 77 72 73 66 59 53 59 70 75 73 51 40 21 18 41 112 106 88 70 55 43 37 26 21 8 352 7 20 26 23 17 21 10 9 1 359 351 340 353 352 355 345 329 321 319 298 268 261 256 262 265 269 268 262 260 258 257 259 262 262 262 257 241
58 73 63 56 51 71 84 89 87 99 102 100 103 104 85 76 77 80 74 74 62 59 62 79 82 77 67 59 56 52 54 47 43 34 23 10 0 346 54 103 113 102 89 69 47 24 6 21 11 5 7 24 26 25 14 359 358 359 350 352 351 0 356 353 336 324 305 290 282 267 266 270 279 274 266 262 260 255 258 260 255 255 256 259 262 259 257
53 73 75 68 62 66 66 61 61 81 92 99 101 91 89 74 75 79 79 71 63 56 69 96 91 83 82 73 77 70 57 47 33 20 7 357 339 3 82 90 79 95 100 82 27 8 1 19 2 7 20 37 28 15 3 4 4 10 2 2 351 345 324 307 288 272 268 257 253 261 264 269 260 257 247 244 250 252 250 253 255 253 255 257 258 256 255
57 65 73 75 74 73 66 68 72 80 89 81 72 75 82 90 86 83 80 68 54 50 69 75 85 97 100 98 81 71 60 49 34 12 351 349 318 75 75 65 57 43 65 54 351 356 11 356 358 12 15 29 14 6 -0 3 356 351 351 343 330 303 282 272 266 256 257 251 248 251 254 255 265 268 268 256 250 245 248 253 255 256 259 257 255 253 251
74 69 68 77 79 77 79 62 52 38 43 84 89 76 72 76 83 86 73 62 46 20 53 82 91 82 76 81 78 65 46 27 18 12 8 7 30 77 70 57 53 50 53 6 355 3 6 4 358 2 13 11 357 351 359 1 353 344 331 304 294 275 273 264 267 268 268 264 263 256 256 256 253 265 266 270 269 265 259 257 262 264 266 265 264 259 252
78 65 61 75 74 77 74 68 58 53 40 34 60 69 51 61 56 64 71 64 39 28 37 44 62 76 65 68 73 69 43 23 15 15 6 6 101 102 104 82 52 32 24 16 9 12 357 351 355 5 358 358 357 351 352 349 338 327 318 301 282 281 279 274 281 277 278 273 273 273 269 270 270 268 268 271 271 268 271 272 264 262 263 265 265 267 265
77 81 71 69 76 66 72 74 68 57 54 47 46 45 25 36 48 66 58 64 44 39 39 44 74 78 70 71 78 84 65 33 22 12 346 309 149 165 101 98 56 21 14 14 357 353 348 352 356 354 348 346 344 354 343 333 326 312 311 299 290 278 281 283 278 282 282 283 279 277 274 277 275 270 267 266 266 269 269 266 267 266 266 266 269 267 270
69 78 80 78 78 79 82 88 97 81 60 51 48 48 47 39 57 73 75 77 70 62 67 61 60 78 83 83 85 89 76 36 17 355 20 24 58 101 104 115 71 23 359 3 340 347 340 351 351 349 346 334 325 332 330 320 314 314 306 306 297 293 285 284 277 275 276 271 272 272 274 271 270 271 270 268 267 265 265 266 265 265 264 264 262 264 264
61 66 78 87 89 89 92 92 80 90 88 60 49 46 40 47 62 75 78 73 66 69 67 73 72 69 68 72 94 98 72 27 11 348 9 57 28 333 45 114 86 27 358 341 328 327 326 333 331 324 325 323 313 320 317 307 309 310 309 304 296 290 278 271 270 270 267 269 267 267 265 263 265 265 267 267 267 265 264 262 262 264 266 265 267 266 265
62 57 62 73 82 91 95 95 95 87 80 65 49 53 50 44 38 35 45 60 62 56 61 61 61 65 56 49 31 49 20 354 346 355 25 124 86 72 87 54 5 3 345 332 323 314 309 311 301 312 312 313 317 318 314 304 300 297 295 297 291 284 276 272 264 263 261 263 267 266 266 265 266 266 265 267 266 266 262 261 262 265 265 268 268 268 268
61 59 57 61 71 73 70 75 74 77 90 103 80 59 54 50 38 33 32 39 46 52 48 43 37 27 30 354 329 296 304 304 279 256 315 231 179 144 131 82 342 330 330 322 311 303 298 299 308 307 309 313 315 317 305 297 299 297 297 294 287 281 273 271 268 269 265 266 266 268 267 267 267 265 265 264 266 267 267 267 267 266 268 268 269 267 266
63 60 60 57 51 52 47 65 83 100 109 108 93 73 54 47 34 31 29 27 23 17 17 8 326 305 273 268 277 282 270 257 243 234 233 287 319 77 59 15 333 343 316 316 305 298 294 300 304 306 310 313 318 309 298 297 295 294 288 289 285 280 275 275 273 270 271 270 268 267 268 266 266 265 263 265 267 270 271 271 273 271 268 267 267 268 269
50 57 49 54 56 42 39 50 74 93 92 68 59 57 27 23 16 23 12 355 335 304 289 276 271 272 274 245 247 295 312 316 275 155 187 177 73 53 331 321 295 300 303 301 297 294 296 305 304 305 307 308 310 298 291 296 293 290 295 289 290 284 280 278 274 274 275 273 269 268 267 267 268 269 270 268 268 267 268 268 266 268 270 269 270 268 267
49 55 54 49 53 38 63 74 74 67 72 85 93 60 13 332 337 307 235 217 270 286 275 257 256 245 257 247 248 239 246 265 330 2 110 81 353 333 305 299 306 308 302 287 284 279 286 290 295 300 304 310 302 285 291 290 295 292 285 288 284 284 285 284 282 281 278 277 274 270 268 267 266 266 267 270 270 273 273 272 274 274 275 275 275 275 275
50 54 53 51 50 60 79 90 92 96 108 130 113 178 114 317 267 243 231 320 324 318 317 300 284 273 265 240 244 246 238 249 240 250 63 30 321 315 307 299 297 298 296 283 285 287 288 290 294 297 301 297 288 288 287 288 280 285 282 279 283 281 280 279 279 281 275 270 268 268 268 269 267 268 267 269 273 274 274 274 274 273 275 277 280 279 278
145 102 76 66 90 121 139 117 114 123 125 145 245 251 7 273 29 224 70 349 307 308 301 300 291 277 267 252 218 245 240 241 271 285 288 280 278 276 285 287 284 285 284 287 290 288 291 296 299 297 292 286 284 285 283 281 277 271 270 269 268 271 268 271 274 271 269 268 266 265 267 267 267 267 271 272 270 269 269 269 270 270 273 273 273 274 274
90 168 130 118 66 111 206 226 226 169 169 213 203 227 189 236 260 283 299 293 302 298 293 297 280 245 244 221 270 272 266 248 257 258 271 277 272 271 270 274 277 275 280 280 278 284 292 292 289 288 285 278 277 278 277 274 275 272 265 267 265 270 274 268 264 263 262 268 273 271 267 266 266 266 267 267 267 267 268 268 270 269 268 267 268 269 270
343 279 234 232 308 324 324 220 214 207 205 191 195 210 211 224 243 266 244 220 238 291 299 324 315 174 145 295 293 275 253 252 251 270 270 270 276 280 282 273 270 275 274 276 281 276 281 285 282 277 277 278 281 286 282 275 267 271 274 272 272 273 271 276 278 276 273 271 268 269 271 270 270 271 267 265 265 264 264 264 265 266 267 268 270 271 271